Location: Harbor View
(36.2448°N, 86.5797°W)
Time: 09:25:07
(UTC+00:00)

Helios 1A Rocket - Pass Details

Date: 29 October 2020
Orbit: 563 x 586 km, 98.3° (Epoch: 05 December)

Event Time Altitude Azimuth Distance (km) Brightness Sun altitude
Rises 23:35:00 0° 140° (SE) 2,794 6.1 -9.1°
Reaches altitude 10° 23:37:23 10° 128° (SE) 1,896 5.2 -9.6°
Maximum altitude 23:40:52 27° 70° (ENE) 1,125 3.8 -10.3°
Drops below altitude 10° 23:44:20 10° 12° (NNE) 1,896 5.3 -11.0°
Sets 23:46:43 0° 1° (N) 2,795 6.3 -11.5°
